Volver al catálogo

STARLINK-35573

ActivoComunicacionesVLEO
NORAD 66116·PAYLOAD·🇺🇸 United States

Lanzado Oct 22, 2025 desde Vandenberg Space Force Base

Loading…

Próximos Pases (próximas 24 horas)

TLE

ActualizadoSource: CelesTrak SupGP

Época: Sep 14, 2026, 22:40 UTC

1 66116C 25237C   26257.94493056  .00026213  00000+0  77437-3 0  2572
2 66116  53.1574 237.5258 0001630 111.2047  83.8402 15.34380858    16

Sigue STARLINK-35573 en tiempo real con AllMySat

Download on the App Store